Weather in Cincinnati

United States     39°08′03″N   84°26′14″W
temp.,
°C
wind,
m/s
gust,
m/s
humid.,
%
clouds,
%
prec.,
mm/h
press.,
hPa
HPBL,
m
18 may, tue
tue1823:00+14ese279597 0.1 1024152
02:00+12ene1196100 0.1 102411
05:00+12e2695100 0.0 1024132
08:00+14e2789100 0.0 1025216
11:00+18ese3576100 0.0 1026291
14:00+21s3661100 0.0 1025528
17:00+23sse2457100 0.0 1024897
20:00+19ese2681100 0.0 1023141
19 may, wed
wed1923:00+17se2287100 0.0 102436
02:00+15ese2290100 0.0 102550
05:00+14sse229490 0.0 102541
08:00+16sse1390100 0.1 102689
11:00+22s246681 0.0 1027456
14:00+23sw4570100 0.6 10261039
17:00+23sw2361100 0.1 1025808
20:00+19nw0179100 0.1 102511
20 may, thu
thu2023:00+17ene2286100 0.0 102520
02:00+16ese2293100 0.0 102532
05:00+15s1194100 0.0 102611
08:00+17ssw1388100 0.0 1028112
11:00+24ssw2461100 0.0 1027561
14:00+27sw345087 0.0 10271677
17:00+27s235596 0.0 1025845
20:00+23s127498 0.2 102526
21 may, fri
fri2123:00+19se118054 0.0 102611
02:00+18se118358 0.0 102711
05:00+17sse118819 0.0 102711
08:00+18s128282 0.0 1029108
11:00+25wsw2460100 0.0 1029647
14:00+28wsw3444100 0.0 10281738
17:00+27wsw3447100 0.0 10271929
20:00+23wsw1272100 0.0 102722
22 may, sat
sat2223:00+20sw1181100 0.0 102711
02:00+18w1185100 0.0 102720
05:00+17wsw1285100 0.0 102737
08:00+18wsw148199 0.0 1028146
11:00+24w35605 0.0 1026799
14:00+26w456435 0.5 10241302
17:00+26w356852 1.3 10221159
20:00+22wsw26880 2.3 1021160